GFSFLT2_700_spd_024.txt.gz
Wind_Speed
4 6 8 6 3 5 5 5 6 8 10 10 10 11 13 15 17 19 19 20 21 21 21 21 20 18 17 16 16 17 19 19
6 7 5 4 5 4 5 6 5 6 8 10 11 12 13 15 17 19 20 21 23 23 23 22 21 20 18 16 15 15 15 17
6 4 3 4 3 3 3 5 8 10 10 12 14 18 20 20 20 21 22 23 23 24 23 23 21 19 17 16 14 13 14 15
3 2 0 3 5 6 7 7 8 10 13 15 18 22 24 24 24 23 23 24 24 23 22 21 20 18 15 15 16 16 15 15
12 9 7 5 4 3 2 4 7 12 15 18 21 22 24 25 24 23 24 25 22 21 22 23 22 21 19 18 17 16 19 19
14 12 9 7 8 7 9 10 12 13 17 20 22 25 25 26 26 24 25 25 23 22 24 25 25 25 25 25 25 24 23 22
10 10 9 8 9 12 10 15 16 16 17 19 21 24 25 29 27 26 27 26 25 26 26 26 27 28 29 30 30 30 28 27
12 14 16 16 11 13 15 18 22 18 18 20 23 24 27 29 28 29 29 29 30 32 34 34 33 33 32 33 33 33 34 33
13 10 13 12 6 8 17 18 22 22 24 25 26 26 28 28 29 30 32 33 36 39 40 41 41 38 37 36 37 37 36 36
13 16 14 12 11 16 19 17 20 25 26 28 31 30 30 30 32 37 38 40 42 45 42 44 44 43 41 38 37 37 36 36
16 20 18 15 21 22 18 17 20 25 27 28 28 29 32 33 36 38 43 44 45 46 46 45 45 44 43 40 38 38 39 39
20 19 18 22 23 19 17 19 23 27 31 33 34 35 37 37 38 44 45 48 50 48 47 46 46 47 47 46 43 41 40 39
22 24 25 20 15 17 19 23 26 29 32 32 34 35 37 39 46 44 47 49 51 52 52 51 50 50 52 51 48 44 43 41
22 22 16 14 16 19 21 23 26 27 29 32 36 38 39 42 44 47 51 52 50 49 49 49 47 48 49 50 54 51 48 45
18 18 18 21 24 27 28 27 27 30 32 34 35 37 41 47 51 51 49 47 47 48 48 48 48 49 49 50 53 57 57 53
18 20 23 25 28 26 24 26 26 27 30 35 38 41 44 45 46 48 50 50 49 49 49 49 49 50 51 50 50 51 55 61
24 24 28 27 28 29 31 34 36 39 42 41 41 41 42 45 47 48 49 51 51 50 51 51 51 52 53 54 52 45 43 46
24 27 30 33 35 35 37 37 41 46 44 43 42 43 46 47 47 48 48 49 49 50 50 50 49 48 45 40 39 40 40 39
31 33 35 38 43 44 44 43 45 49 47 44 46 43 43 45 49 50 50 51 50 49 49 47 45 41 39 38 37 37 37 36
31 33 35 39 46 46 45 45 45 44 44 49 45 44 46 46 48 49 47 47 48 48 47 45 43 41 37 34 32 30 28 22

GFSFLT2_700_spd_027.txt.gz
Wind_Speed
6 3 5 6 3 1 3 5 6 8 10 11 14 15 15 16 17 17 17 18 19 19 19 19 17 15 14 13 14 15 15 14
5 6 5 3 1 3 5 6 7 9 11 13 13 14 16 18 19 19 19 20 21 22 21 20 18 17 15 13 12 13 15 14
7 6 2 3 4 4 6 6 7 9 9 10 12 16 19 22 23 24 24 24 24 24 21 19 19 17 15 13 13 13 13 14
2 1 2 4 4 4 6 6 6 6 8 11 15 18 20 22 25 26 26 25 25 25 24 23 24 23 21 19 16 15 17 17
8 6 5 5 5 3 4 4 7 10 12 15 17 19 21 23 26 28 28 27 26 24 23 24 26 26 26 26 25 25 23 22
10 14 9 7 4 2 4 7 10 13 16 17 17 19 22 22 27 27 28 28 27 26 27 28 30 30 30 30 30 30 30 29
13 11 10 4 10 7 5 12 14 15 18 20 21 22 24 25 27 26 28 31 31 31 32 33 36 38 37 36 34 34 34 34
8 6 9 13 14 11 10 16 17 17 19 21 23 23 25 28 29 29 31 34 36 37 37 41 43 42 39 41 39 38 37 38
5 7 8 8 9 13 16 19 19 17 19 21 23 26 28 31 34 35 37 38 39 40 42 44 44 45 46 42 41 41 40 38
13 11 11 10 13 13 19 22 21 21 23 25 29 31 33 34 35 37 38 40 43 46 45 46 46 46 45 42 41 42 42 43
19 16 17 12 14 17 22 22 21 23 26 29 31 33 34 35 37 39 40 43 45 50 49 52 53 53 53 53 51 47 45 46
19 17 18 15 25 21 20 20 22 25 27 29 31 32 34 36 36 39 43 47 50 53 54 54 56 58 57 54 51 48 48 47
19 19 21 23 17 17 20 21 25 26 27 29 30 32 35 38 42 45 49 51 53 56 57 55 52 52 55 55 53 51 49 49
21 21 17 16 17 20 22 24 23 24 26 28 31 35 39 42 45 47 51 52 51 51 52 54 54 55 57 57 60 57 53 51
14 13 13 14 16 19 21 23 24 26 29 29 33 37 40 42 44 46 49 51 52 53 53 53 53 52 53 54 55 57 60 54
12 14 17 20 18 17 18 21 26 29 33 38 41 43 44 45 47 50 51 51 51 51 53 54 55 56 54 50 51 53 56 63
13 16 21 24 27 31 33 36 37 39 40 42 44 46 46 47 51 51 51 52 54 54 53 52 51 51 50 51 52 52 50 50
19 23 27 31 36 39 41 43 41 40 42 45 46 46 48 50 50 50 48 46 48 50 45 43 43 45 47 47 48 48 47 46
25 28 30 33 39 42 42 41 41 43 44 46 46 46 46 45 46 47 47 49 47 44 43 44 45 44 45 45 43 40 38 35
26 29 33 35 42 48 44 43 45 45 45 45 46 45 44 42 43 46 49 45 44 40 39 36 38 40 43 43 42 37 31 29

GFSFLT2_700_spd_030.txt.gz
Wind_Speed
9 5 3 4 2 2 5 6 8 10 11 11 11 12 13 15 16 17 17 17 19 20 22 21 19 18 16 15 13 12 13 12
5 3 3 1 4 6 8 9 10 9 9 9 10 11 13 15 17 20 21 22 22 21 20 19 18 18 18 18 16 15 14 13
5 4 4 6 6 7 9 9 8 7 7 7 10 13 15 17 18 21 25 24 24 24 22 20 20 21 21 19 18 18 18 17
5 5 7 8 9 9 7 7 5 4 7 10 14 16 17 19 19 22 25 25 24 24 23 23 23 24 26 27 27 24 23 22
6 7 9 9 9 7 5 3 4 6 9 12 14 17 19 21 21 21 24 26 27 26 25 25 26 27 29 32 34 32 30 29
13 12 11 12 6 4 2 2 8 11 13 14 15 17 19 22 21 22 25 27 28 30 30 30 32 32 33 35 34 33 34 34
10 11 10 8 7 1 1 3 10 13 16 18 18 18 21 24 25 27 28 29 30 31 33 35 36 38 38 37 35 36 36 36
6 3 4 2 1 4 5 7 12 15 19 21 21 22 24 28 29 30 31 32 33 36 37 39 42 43 42 42 39 38 37 37
8 7 8 6 4 6 7 11 17 19 20 20 20 23 27 29 31 32 34 35 38 39 41 44 46 47 47 47 45 43 43 43
15 16 15 12 6 11 13 22 18 20 20 21 23 26 30 31 32 34 37 40 42 43 48 50 51 52 52 50 49 48 48 48
21 22 24 18 14 15 15 14 18 20 23 25 26 28 30 32 33 37 41 43 45 51 52 54 56 56 57 55 50 46 46 45
24 28 26 24 18 15 16 15 18 21 24 26 27 29 30 31 37 41 44 48 50 52 54 55 58 59 57 57 55 52 49 49
20 22 20 19 20 18 14 15 19 23 27 28 30 31 34 37 41 44 48 50 52 52 52 53 56 58 60 59 56 54 54 50
13 16 16 13 11 15 20 23 24 24 25 28 32 36 39 41 44 46 48 49 51 53 56 56 56 57 59 59 60 59 56 52
11 9 11 14 17 19 19 21 22 26 28 30 33 36 39 42 46 49 51 52 53 54 54 55 55 53 53 51 52 54 57 54
8 10 11 12 15 20 27 30 33 36 36 36 38 41 44 46 47 49 50 51 52 53 55 56 56 54 51 45 45 48 50 55
12 15 20 23 26 28 35 35 39 41 38 40 42 44 45 46 48 50 52 54 55 54 54 52 49 46 44 45 45 45 43 48
23 22 23 26 28 32 35 39 43 39 39 41 42 44 45 47 49 50 49 49 50 48 48 47 44 44 46 45 42 43 43 44
20 23 26 27 32 36 39 42 40 38 40 42 43 45 47 48 48 49 49 51 50 52 46 45 46 45 42 36 37 38 39 39
25 28 29 31 35 40 42 41 40 41 43 46 48 49 49 50 51 53 53 55 52 45 43 45 37 33 34 34 35 39 38 35

GFSFLT2_700_spd_033.txt.gz
Wind_Speed
14 11 6 2 3 6 8 9 11 12 10 9 8 9 10 11 12 14 17 18 19 20 19 18 18 18 18 18 17 16 15 14
13 8 4 5 7 8 10 12 12 10 7 6 6 8 9 11 13 15 18 19 20 20 18 17 17 17 18 19 20 21 20 19
8 6 7 9 10 11 12 11 8 6 4 4 6 9 10 13 14 17 20 22 21 21 20 19 19 19 21 22 23 24 24 23
6 7 10 12 13 14 11 8 5 2 3 6 8 12 13 13 16 19 21 24 23 22 23 23 23 24 25 26 27 30 30 27
10 12 13 16 15 13 10 6 3 1 5 9 11 13 14 15 18 19 22 23 23 23 24 26 29 29 29 30 31 32 32 30
14 17 14 14 13 12 10 8 4 3 6 10 13 15 15 18 20 22 24 24 24 25 27 29 32 34 33 33 34 33 33 32
14 16 12 12 13 12 10 8 4 7 10 13 15 15 17 19 22 25 26 27 27 28 31 34 36 36 37 37 35 36 36 36
10 11 11 9 9 10 7 5 9 17 14 15 15 17 18 22 25 28 30 31 32 33 35 38 39 40 42 42 41 42 42 42
11 12 12 12 8 7 8 6 17 21 16 16 16 18 21 25 28 30 32 35 37 39 40 42 43 46 47 47 47 47 48 47
17 18 16 16 16 12 12 11 16 13 16 16 18 22 26 28 31 34 37 38 41 43 44 46 48 49 50 50 50 50 50 49
20 22 24 24 24 17 12 4 11 14 17 19 23 27 30 31 34 35 39 41 43 45 48 50 52 52 52 53 53 54 52 50
21 24 27 26 17 10 7 5 9 15 19 23 25 27 29 32 36 39 41 43 45 48 50 51 53 55 55 55 54 54 53 53
27 17 20 14 6 6 10 11 15 17 19 20 24 29 33 36 39 41 44 47 48 49 50 52 53 54 57 57 57 57 56 54
9 10 8 7 10 11 10 11 14 18 22 26 29 31 32 34 37 40 43 47 50 50 51 53 54 55 56 57 56 54 53 49
7 7 12 12 10 9 13 18 22 26 30 33 31 31 33 37 41 43 45 46 47 49 51 52 53 52 51 50 50 51 51 48
4 5 10 16 16 16 20 24 28 32 35 36 34 36 39 41 43 44 46 48 49 50 49 48 47 47 44 41 40 43 46 48
12 22 27 21 22 23 25 29 32 36 38 36 36 39 40 43 44 46 47 48 48 48 49 50 47 44 44 41 41 41 41 42
27 18 14 18 23 25 28 32 36 38 37 37 38 40 42 44 46 47 47 48 51 51 50 44 39 44 43 42 41 37 37 39
17 17 18 23 26 27 30 34 37 37 38 39 41 45 46 47 47 49 51 52 51 49 47 38 40 43 38 35 31 34 37 38
19 20 24 26 30 28 32 36 37 37 40 43 45 47 47 48 50 51 52 51 48 45 41 37 40 34 30 34 36 36 34 37

GFSFLT2_700_spd_036.txt.gz
Wind_Speed
17 15 11 7 7 9 11 11 12 11 9 6 5 5 6 7 8 10 14 16 20 20 20 17 16 16 16 16 16 16 16 16
17 12 8 8 10 12 13 14 14 11 8 5 3 4 4 4 7 11 14 17 19 20 19 18 17 18 18 19 19 19 19 20
13 10 9 11 13 14 15 16 13 9 5 3 0 2 3 5 9 12 14 16 19 19 20 20 20 20 22 23 23 23 23 24
10 10 13 15 16 16 16 15 11 8 6 5 4 5 6 8 11 13 15 18 19 20 21 22 24 25 27 26 24 25 25 25
13 15 17 17 18 19 18 15 11 7 6 7 8 9 10 11 12 14 17 19 21 23 24 25 26 27 30 28 28 28 28 28
15 17 19 20 21 19 16 14 10 8 7 9 11 12 13 13 15 17 19 21 24 26 27 28 29 31 31 30 32 32 32 32
18 18 19 19 19 19 17 14 9 6 10 13 13 14 14 16 18 20 23 26 29 30 32 32 32 33 34 34 36 38 38 36
18 16 16 17 18 17 15 11 7 9 15 16 15 16 16 19 22 25 28 32 35 37 35 36 36 36 38 40 40 41 43 43
14 15 17 14 15 18 16 10 5 6 17 15 16 17 18 23 26 29 32 35 38 37 38 41 42 43 45 45 46 47 48 48
16 18 19 19 20 20 23 24 10 6 12 16 17 20 24 28 31 34 35 37 38 40 43 43 46 47 48 49 48 48 50 49
20 19 23 21 25 28 21 16 20 11 12 15 19 23 28 31 32 33 35 38 40 42 44 47 47 49 48 48 49 49 50 51
21 24 27 30 31 14 5 7 6 9 12 17 21 24 27 30 31 34 36 39 41 42 44 46 48 48 49 51 52 53 52 53
23 26 24 25 14 9 2 3 6 8 12 16 20 25 27 29 32 34 36 39 41 42 43 46 47 50 49 51 51 53 51 52
24 15 9 5 5 7 4 7 8 10 14 19 24 28 28 30 32 35 38 40 43 44 45 46 47 52 52 49 48 44 31 39
15 6 2 3 10 15 12 10 13 16 20 25 28 30 33 34 36 37 40 41 43 45 46 47 47 45 49 47 43 38 42 40
3 2 12 17 16 13 12 16 20 23 27 31 33 34 36 37 38 40 42 42 43 44 46 45 46 45 43 41 41 41 37 35
8 11 21 16 13 15 19 21 24 27 31 34 34 36 37 38 39 41 43 44 45 47 47 47 45 43 37 34 36 33 27 25
16 19 15 15 17 21 23 27 27 31 34 36 37 38 38 41 43 44 46 46 48 43 41 41 33 27 29 37 36 29 26 26
9 11 16 19 21 24 29 29 32 34 38 36 37 38 41 43 45 46 46 46 47 42 27 28 27 29 32 32 34 33 37 34
13 16 18 22 25 28 29 32 34 37 35 37 39 41 43 44 45 46 46 47 46 44 27 27 29 29 29 31 33 37 33 33

GFSFLT2_700_spd_042.txt.gz
Wind_Speed
23 21 15 15 10 7 10 12 12 12 12 10 8 6 4 4 4 5 7 9 12 14 17 19 21 21 20 18 17 14 13 13
17 14 13 12 9 9 11 12 12 12 11 9 6 3 1 2 4 6 8 10 12 14 16 19 21 21 21 18 19 17 16 16
19 18 17 12 9 10 12 12 14 12 10 6 3 2 2 4 5 7 9 11 13 16 18 21 24 24 25 24 22 21 19 21
20 18 11 8 11 13 14 15 15 12 8 6 5 4 7 6 9 11 13 15 17 18 21 24 25 26 27 24 25 24 23 24
12 9 8 8 10 13 14 15 15 10 8 8 4 6 7 12 12 13 16 18 20 22 27 28 29 29 29 28 28 26 27 29
11 9 9 8 12 15 15 16 15 12 8 7 6 9 11 13 17 21 20 23 22 26 31 32 31 32 33 33 33 31 32 32
10 12 11 13 18 18 20 15 15 10 10 9 11 13 16 16 21 25 23 24 28 30 32 33 33 33 35 36 35 35 35 37
10 11 12 16 18 17 19 19 16 14 13 9 8 11 12 23 20 21 23 26 30 32 34 35 35 35 37 38 37 37 36 38
6 10 13 12 13 15 18 19 18 19 17 15 18 21 21 22 23 22 27 30 30 32 35 35 37 36 38 40 39 38 39 39
7 6 7 8 11 13 16 19 22 28 26 21 30 21 26 23 24 25 26 29 32 32 34 36 38 39 39 41 42 39 40 40
8 9 10 12 15 16 19 23 22 27 35 29 25 23 20 25 23 23 27 29 31 34 35 38 39 41 41 42 43 42 42 42
14 15 14 17 20 20 16 14 7 14 13 19 18 20 22 23 23 24 27 30 32 35 37 38 39 41 43 43 44 45 43 41
14 16 18 21 22 18 9 9 13 8 10 11 16 18 20 23 27 28 28 32 36 39 40 41 41 42 43 44 43 43 41 36
19 21 21 23 15 9 9 11 9 8 11 14 18 21 23 27 26 30 33 34 35 38 39 40 41 41 42 45 47 44 42 39
22 23 22 17 13 11 12 12 12 12 12 16 20 21 25 27 30 30 32 35 36 36 38 41 43 42 40 43 47 47 45 41
25 25 18 16 15 15 13 13 15 18 19 21 20 22 25 30 31 33 34 34 35 37 38 40 41 41 41 39 39 37 43 46
24 18 16 14 17 16 12 15 16 18 19 25 30 28 35 32 35 37 38 39 40 41 41 41 41 42 41 40 37 36 38 38
18 15 16 15 16 16 15 18 22 22 26 30 25 31 30 31 35 37 37 39 40 39 39 38 38 39 38 33 35 38 39 41
16 15 20 17 16 18 19 22 23 27 28 32 37 34 31 33 35 35 36 38 40 40 40 40 39 39 29 30 35 38 39 37
16 19 22 20 21 21 24 26 27 28 30 34 32 32 31 34 35 36 38 40 40 39 39 39 38 35 27 31 33 38 37 38

GFSFLT2_700_spd_045.txt.gz
Wind_Speed
30 28 27 18 13 11 12 15 14 15 15 13 11 9 6 4 3 2 3 5 8 9 11 13 16 16 16 16 12 13 17 16
15 22 16 11 10 10 13 14 15 16 14 12 9 7 5 1 1 3 5 7 9 11 13 16 18 20 19 17 13 13 17 17
19 17 17 15 12 11 14 15 16 15 13 10 7 4 2 3 5 7 9 11 12 14 16 19 22 24 23 22 20 19 19 20
17 13 13 8 9 12 15 15 15 13 11 10 6 4 4 5 9 12 15 16 17 16 17 21 23 25 25 23 21 21 22 24
21 18 12 9 13 15 15 13 13 14 13 9 6 7 7 10 11 14 17 16 17 19 21 27 29 28 29 29 28 28 27 27
15 14 13 13 14 14 14 15 15 14 11 8 8 7 9 11 14 17 24 24 21 23 27 29 27 28 30 31 32 31 30 32
8 6 6 9 12 13 12 12 13 14 12 11 8 14 12 12 17 20 19 23 25 26 28 29 30 30 31 34 35 34 34 35
6 7 11 11 8 8 9 9 9 14 15 16 13 9 19 16 15 18 17 22 27 28 28 29 31 33 35 36 37 35 35 36
9 8 3 3 3 4 7 8 11 11 18 21 22 18 29 24 19 19 20 26 28 29 29 31 33 34 34 36 37 36 35 35
5 4 3 2 2 5 8 10 12 14 22 26 29 29 27 34 22 22 23 27 27 29 30 32 35 37 38 38 37 36 34 36
4 3 4 4 5 7 9 13 18 19 17 20 25 31 37 27 26 22 25 28 30 32 32 34 36 37 37 35 36 37 38 40
5 6 6 6 10 14 14 14 14 10 14 17 24 24 25 22 21 22 26 29 31 33 35 37 38 37 37 37 38 38 38 38
6 8 10 13 17 19 16 11 10 12 12 12 14 16 20 23 24 25 27 30 32 34 37 38 36 35 36 37 38 37 37 36
12 12 14 19 21 18 12 11 13 12 9 12 13 17 21 23 24 25 28 29 31 34 36 36 36 36 38 38 40 38 36 37
16 17 20 23 23 15 14 14 15 12 13 15 16 19 22 20 21 27 29 28 31 32 33 35 38 37 37 39 43 44 45 42
20 23 24 26 19 15 16 16 16 16 18 18 20 20 24 23 29 28 27 29 31 32 34 35 38 40 39 39 40 44 48 51
26 27 28 25 17 14 17 19 20 20 20 21 22 24 25 28 34 31 31 32 33 35 36 37 37 39 40 42 41 42 41 42
30 31 26 20 17 16 18 20 21 22 24 24 26 29 35 38 39 34 34 35 36 37 37 38 38 39 39 40 40 42 38 38
26 25 24 20 17 16 18 21 22 24 25 25 28 33 37 37 29 30 32 33 34 36 38 39 39 40 40 39 37 36 37 39
25 25 23 17 16 19 21 22 24 25 29 31 38 37 35 38 26 29 32 33 34 36 36 38 38 39 39 37 36 37 38 42

GFSFLT2_700_spd_051.txt.gz
Wind_Speed
34 32 34 28 26 22 20 17 20 19 18 17 15 12 10 7 4 4 2 3 5 6 7 10 12 16 22 19 17 19 20 21
26 32 34 36 30 27 19 21 19 18 17 15 14 11 9 7 5 6 6 4 5 7 11 13 14 17 18 18 20 21 21 21
30 28 31 33 32 26 26 22 18 18 17 15 15 11 9 8 7 9 8 7 10 11 11 12 15 18 18 18 19 20 21 21
24 22 29 33 20 22 21 21 19 18 17 15 12 11 9 8 7 9 11 12 15 15 14 15 18 19 18 19 20 22 24 25
17 25 30 25 21 19 18 16 17 18 17 14 11 8 10 8 8 10 13 14 14 16 19 20 21 21 22 22 24 27 28 29
21 17 15 15 14 13 17 16 17 16 14 11 10 10 11 13 13 13 10 12 18 24 25 23 22 24 25 28 30 31 31 31
19 17 14 11 13 16 15 13 13 14 13 11 11 12 14 17 16 15 19 20 24 27 26 25 24 25 29 31 33 34 35 36
14 13 12 10 9 11 10 9 10 12 13 13 12 12 16 18 19 21 23 24 25 27 26 23 24 27 30 33 35 38 39 37
13 13 13 11 8 7 8 9 11 12 13 13 14 14 19 17 21 23 24 27 28 28 27 26 28 30 33 35 37 40 40 37
13 14 14 13 12 10 9 8 8 9 11 13 15 17 20 21 23 24 26 29 27 24 26 29 32 33 34 35 37 39 39 38
14 15 14 13 12 9 7 7 9 9 12 13 15 19 22 24 24 23 27 24 22 25 30 33 34 35 36 37 39 38 37 38
16 14 12 11 10 7 4 5 7 10 12 15 17 21 23 25 23 22 20 22 25 29 33 33 36 36 36 39 39 37 37 36
9 9 7 6 4 4 6 8 11 12 15 17 18 20 21 21 21 21 23 27 30 34 33 35 36 35 37 38 38 38 37 35
9 8 8 8 8 10 11 12 14 16 16 15 18 19 20 21 22 23 27 31 33 36 35 37 37 37 38 40 41 38 37 35
9 9 10 12 13 15 14 14 17 16 16 17 19 18 20 21 22 24 29 30 31 31 38 42 39 37 41 40 43 42 42 38
10 11 14 17 20 20 19 17 18 15 19 21 18 18 19 22 26 28 27 29 32 37 40 36 36 42 41 39 40 43 46 47
11 14 17 17 22 24 22 22 17 19 19 20 19 20 23 25 26 32 33 27 32 37 38 37 41 39 39 42 42 43 43 44
18 19 19 20 20 21 26 24 19 18 19 18 21 24 26 31 34 38 42 32 38 43 43 42 40 40 41 43 45 45 43 43
20 22 22 22 19 22 24 20 19 18 19 22 27 31 33 35 36 38 41 42 47 51 48 48 42 41 43 44 44 43 42 42
28 24 24 21 23 25 18 18 20 21 22 26 29 33 38 38 40 47 42 43 45 48 45 45 38 40 45 44 43 41 40 39

GFSFLT2_700_spd_057.txt.gz
Wind_Speed
28 37 42 40 38 30 28 24 22 18 18 17 17 14 11 9 7 4 4 4 6 10 12 13 14 15 16 16 16 17 17 16
23 17 26 14 25 25 26 28 23 20 19 20 19 16 12 8 4 2 2 5 7 9 10 10 12 16 16 16 16 16 17 17
19 25 31 14 21 33 29 30 28 23 25 22 20 15 10 7 3 0 3 5 8 9 7 12 15 16 15 14 15 16 18 18
11 14 17 22 18 34 40 28 32 27 24 24 18 12 8 4 3 2 5 6 8 6 11 14 15 16 14 14 17 19 21 21
16 20 20 13 25 29 32 36 29 28 26 19 14 11 6 4 3 5 7 7 5 9 14 17 16 15 14 16 19 22 24 24
14 18 18 12 22 34 27 27 28 24 20 16 12 8 7 6 7 7 7 8 10 14 17 17 16 14 14 19 22 23 25 26
20 20 27 32 33 28 28 25 23 21 18 16 11 9 8 9 6 7 9 13 15 17 17 16 13 13 17 21 22 25 27 27
34 35 32 29 28 27 25 22 21 18 17 15 13 11 10 8 7 10 12 14 15 14 15 12 14 17 20 23 24 26 27 29
26 25 23 22 22 22 22 20 18 18 17 15 13 12 10 9 10 11 15 15 15 15 12 14 18 22 25 26 27 28 29 30
16 19 20 22 22 22 21 19 18 17 14 13 13 12 10 11 13 15 16 15 15 14 16 18 22 25 27 29 31 32 34 36
15 16 17 18 19 19 19 18 17 16 16 16 13 13 13 13 15 18 17 17 15 16 19 22 25 27 30 32 32 34 37 38
17 18 19 20 20 19 18 17 16 14 14 14 13 12 13 15 16 18 17 16 17 18 20 23 25 28 30 31 31 35 34 36
19 19 19 18 17 15 13 10 9 10 12 14 13 13 14 15 17 18 17 18 18 20 22 25 26 30 32 34 35 34 35 37
17 17 16 16 15 13 12 11 10 10 10 10 14 13 15 16 18 19 20 20 21 23 26 29 32 34 25 29 38 42 42 38
12 12 13 14 14 13 11 11 10 9 9 11 12 17 18 17 19 21 22 22 24 25 29 31 32 35 39 47 49 48 39 40
14 13 13 14 14 14 11 13 14 14 15 17 19 19 18 19 20 23 24 24 27 32 34 35 42 43 35 35 45 41 41 45
14 13 13 13 14 15 15 13 16 18 20 21 22 23 21 21 24 26 27 29 31 33 36 40 43 45 36 42 44 41 42 51
19 16 15 15 16 18 18 17 14 16 20 23 25 27 26 24 26 29 30 31 33 39 44 33 37 35 42 46 43 42 43 40
18 17 11 13 18 19 19 18 18 18 20 24 29 30 27 27 29 31 31 33 36 43 47 37 39 48 43 45 41 41 40 40
17 15 19 14 17 19 22 22 18 22 21 23 26 25 27 28 27 29 28 34 39 36 37 36 46 43 43 42 40 41 39 36

GFSFLT2_700_spd_060.txt.gz
Wind_Speed
28 27 37 42 39 38 34 29 22 22 20 17 18 18 16 13 10 8 6 6 6 6 7 8 13 15 14 11 10 12 13 13
19 23 19 25 17 13 28 24 24 23 21 19 18 18 15 12 8 6 4 3 4 5 7 11 13 14 12 11 11 12 14 14
14 19 18 21 18 15 15 29 26 25 22 22 21 18 14 10 7 5 3 2 3 6 6 10 11 12 11 11 12 14 15 15
19 21 22 22 23 11 26 40 34 35 28 24 19 16 12 8 6 3 1 3 5 5 9 11 13 13 11 10 12 14 15 16
14 17 16 14 16 15 35 46 40 37 34 23 19 13 10 7 3 1 3 5 5 8 10 12 13 12 10 10 12 14 16 18
14 20 14 13 16 25 40 39 31 29 24 21 17 15 10 8 5 3 4 7 9 10 12 15 13 10 9 11 15 15 18 21
13 16 15 19 28 25 30 34 28 23 23 22 19 13 11 8 6 5 7 8 10 12 13 13 9 9 12 15 17 18 20 21
14 23 34 32 33 38 33 27 24 24 23 20 16 15 13 10 9 8 7 9 11 11 11 9 10 12 15 17 19 20 21 23
23 34 29 32 24 25 26 26 25 24 22 21 17 15 13 11 10 9 8 12 12 10 9 11 12 15 17 19 21 22 22 23
29 26 23 24 26 26 24 24 25 24 22 19 18 17 15 12 11 11 13 13 12 10 11 12 15 17 19 21 23 23 23 24
20 21 22 22 21 23 24 23 23 23 22 20 19 18 16 14 13 13 14 15 13 12 12 14 16 19 21 24 26 25 22 26
19 18 18 20 23 23 23 23 23 22 21 20 18 17 16 15 15 14 17 17 14 14 15 17 20 21 24 28 28 21 29 40
18 20 22 23 23 23 22 20 18 15 16 17 19 19 17 17 15 17 19 18 17 17 19 21 22 22 25 30 32 33 39 33
18 17 17 16 16 16 16 15 15 16 17 16 17 17 18 18 19 20 20 20 19 20 21 23 24 26 31 34 36 40 39 35
18 17 17 17 17 18 18 18 17 16 15 13 16 18 19 22 22 21 21 22 21 22 23 25 30 31 33 35 35 33 36 43
19 19 19 19 20 20 19 18 17 16 16 16 17 20 22 23 24 22 24 24 23 25 27 30 31 37 39 37 34 31 36 37
21 19 20 20 20 20 20 20 19 20 21 23 24 24 26 26 26 28 27 26 27 29 30 33 32 36 48 38 34 40 38 35
23 21 20 19 18 19 19 20 22 21 23 25 28 28 30 30 30 31 29 30 29 30 30 35 38 34 40 31 39 34 35 39
24 22 19 18 17 18 19 21 22 28 23 24 27 28 30 30 33 32 31 31 29 30 28 32 32 33 32 40 36 39 38 39
23 21 22 22 17 18 18 22 27 28 26 22 27 31 32 30 31 30 31 31 33 26 28 35 31 36 32 34 38 40 40 39

GFSFLT2_700_spd_063.txt.gz
Wind_Speed
12 24 35 43 40 38 34 31 30 24 21 20 20 17 18 16 14 11 10 8 7 6 6 7 9 10 11 11 8 9 9 10
9 16 13 26 23 29 24 33 26 22 21 21 20 21 18 15 12 9 8 6 5 5 5 6 7 10 12 9 7 7 11 12
15 17 14 20 28 5 5 24 35 29 25 24 23 23 20 14 10 7 5 4 3 2 3 6 9 13 10 7 7 10 10 11
14 19 13 18 27 21 16 15 39 37 32 30 29 23 17 12 9 7 4 2 1 1 5 10 15 14 8 6 8 9 10 11
15 13 20 19 21 21 15 33 41 35 31 34 25 20 17 12 9 6 4 1 2 6 11 14 14 10 6 7 8 8 9 11
11 19 25 22 15 14 24 38 37 33 34 30 29 19 15 11 8 6 4 2 6 9 12 11 10 6 5 6 8 9 10 10
15 14 14 9 11 17 37 39 36 33 38 30 21 18 13 11 9 7 4 6 8 9 10 9 6 5 7 8 9 10 13 15
15 13 15 14 21 31 35 36 34 36 30 24 19 17 13 12 10 7 7 7 9 9 7 7 7 8 10 11 12 12 12 15
18 21 22 29 26 22 23 38 38 27 23 21 20 18 16 14 12 9 10 9 11 9 9 10 10 11 12 13 13 15 16 15
27 29 28 25 26 29 29 26 26 24 22 20 20 19 17 14 12 14 13 12 13 12 11 11 12 13 14 14 18 19 18 14
25 26 25 23 26 23 23 23 22 21 21 21 21 20 18 16 16 17 15 15 15 13 13 14 14 15 16 17 16 19 21 23
18 18 17 19 20 20 20 20 21 22 21 22 19 19 20 20 19 19 19 18 17 15 16 16 17 17 18 21 24 27 28 31
16 13 14 17 19 20 20 20 21 22 21 21 21 21 21 23 22 21 21 20 19 17 17 18 19 19 22 25 31 32 34 37
18 18 18 18 16 17 18 19 19 19 21 22 20 21 22 23 24 24 23 24 23 20 19 20 23 22 24 26 28 33 41 42
17 16 17 17 17 18 18 19 19 20 20 21 21 21 22 24 25 27 25 30 27 23 21 23 27 27 26 27 33 35 40 36
19 18 17 17 18 19 20 20 19 19 20 20 19 23 24 27 28 28 27 30 30 27 26 27 27 34 29 31 34 35 32 32
18 19 20 21 21 22 21 22 21 21 22 25 23 26 25 27 31 29 31 33 34 32 30 29 31 29 33 32 33 32 34 37
23 23 22 22 22 22 22 21 23 24 26 23 27 30 33 32 34 34 34 35 37 36 33 35 32 30 35 29 31 27 32 30
26 25 24 23 22 21 21 21 23 25 28 30 32 30 32 29 34 35 37 34 37 37 33 36 32 33 35 35 31 33 32 34
27 27 26 25 22 21 23 21 20 25 30 33 26 28 26 28 34 38 40 40 38 31 34 35 37 31 37 33 33 33 36 40

GFSFLT2_700_spd_069.txt.gz
Wind_Speed
11 18 19 27 28 49 52 50 42 33 29 26 25 25 25 25 23 21 19 16 13 10 10 12 8 7 5 4 7 11 6 6
14 13 16 17 20 6 24 33 38 31 30 29 29 29 28 26 24 21 17 15 13 12 10 6 5 3 3 2 3 8 6 6
12 12 11 8 8 18 26 28 38 32 30 31 31 31 29 26 23 21 17 13 11 9 5 3 3 4 2 1 3 5 4 5
10 15 14 10 5 5 25 20 31 34 32 32 31 30 29 25 22 19 15 10 6 5 1 2 4 1 3 2 2 4 1 1
12 13 13 13 8 8 20 19 31 39 31 34 31 29 26 21 16 13 12 6 4 3 0 3 2 3 5 3 1 1 2 3
9 11 16 14 12 18 14 24 37 32 39 31 29 28 22 21 19 13 10 9 4 1 2 2 1 4 3 0 4 3 4 4
5 10 13 21 18 22 20 35 41 36 34 33 28 26 25 21 18 16 11 7 4 1 1 1 2 2 0 3 6 4 3 4
13 12 17 15 19 21 20 33 34 36 34 30 31 28 27 22 22 15 11 8 3 2 3 2 2 2 3 4 7 6 4 5
8 13 15 21 22 16 25 32 36 38 36 30 33 31 26 19 15 13 11 7 5 3 5 4 4 4 5 6 7 9 6 6
12 16 13 18 16 12 30 35 40 37 35 29 33 28 22 19 15 13 12 9 8 8 7 7 6 5 8 8 8 7 13 15
11 13 8 18 19 29 36 36 36 31 35 37 30 24 21 17 16 14 12 11 11 11 12 12 11 11 11 12 12 12 14 17
14 11 10 16 21 21 27 29 36 37 34 30 25 23 20 18 17 14 14 13 14 14 16 16 16 17 16 17 17 17 19 20
22 23 25 26 28 31 37 37 34 32 31 27 25 22 22 19 17 16 15 15 17 17 19 20 20 21 23 23 24 23 23 24
17 20 21 20 20 25 27 26 25 24 24 26 23 24 21 19 18 18 17 17 21 21 22 24 25 26 28 28 29 29 26 27
13 14 14 14 15 16 19 21 22 23 23 23 23 23 21 17 17 20 18 19 23 23 23 26 28 33 30 33 32 35 30 30
14 15 15 15 16 18 20 19 20 19 19 19 20 18 18 15 13 18 19 19 23 27 27 28 29 32 39 35 36 35 33 35
15 14 13 14 16 15 17 19 19 19 21 21 19 16 14 15 16 20 23 22 25 26 31 36 38 41 45 37 36 38 28 32
17 18 18 21 21 20 18 18 20 19 19 19 17 16 14 15 17 16 22 29 32 29 30 30 33 32 40 42 36 45 35 32
16 19 22 21 20 20 17 16 18 18 20 23 20 17 16 18 15 18 18 22 27 32 34 31 31 31 45 39 38 41 32 33
18 20 19 19 18 17 17 18 18 19 21 21 19 19 19 23 23 23 22 22 24 30 30 33 35 37 29 28 29 19 21 26

GFSFLT2_700_spd_072.txt.gz
Wind_Speed
14 12 15 19 26 24 45 44 39 37 37 34 33 31 30 29 26 24 22 20 18 15 11 7 6 8 8 10 6 6 5 6
13 16 14 15 9 0 37 42 40 39 36 36 34 33 31 29 27 24 22 20 16 14 11 6 2 3 3 7 6 5 4 5
15 15 16 14 8 16 27 19 35 37 35 35 35 34 32 29 27 24 20 18 15 12 9 5 2 2 2 7 7 7 6 5
14 13 15 14 12 10 20 33 33 39 34 33 35 34 31 28 24 22 19 16 13 8 5 4 2 2 3 8 6 5 5 3
13 13 13 11 5 4 22 32 32 45 41 38 36 36 27 25 25 21 17 14 9 5 2 2 2 2 3 6 5 3 2 1
12 13 14 12 3 13 20 20 27 37 38 37 39 32 32 28 23 18 12 8 7 4 2 3 3 3 4 4 3 1 1 0
11 13 14 13 9 16 18 19 25 34 33 34 33 30 28 23 18 16 15 15 8 6 4 3 5 6 4 3 1 1 1 1
13 18 16 14 16 16 16 17 26 35 37 35 31 28 24 23 18 17 20 12 8 4 2 2 5 5 5 2 1 1 2 2
17 13 16 18 15 16 18 16 31 35 37 36 33 28 26 26 24 24 18 13 9 5 3 2 3 5 5 5 4 4 5 5
9 17 20 20 21 21 21 17 33 38 40 36 32 33 28 26 29 23 19 13 10 9 6 2 3 5 7 7 8 8 8 9
20 19 16 21 24 20 20 26 34 34 36 35 35 29 33 29 26 23 18 14 12 12 9 8 6 6 9 10 12 14 14 13
18 16 14 14 22 22 20 41 37 36 38 41 35 38 33 25 23 19 16 15 14 12 11 12 11 11 14 14 15 17 20 20
19 17 19 21 23 23 37 36 28 33 35 35 37 35 28 25 23 20 19 16 15 14 13 14 13 17 20 21 23 21 21 26
22 21 21 23 23 26 29 27 27 33 37 40 36 30 28 25 22 20 18 17 16 15 16 17 17 21 24 27 31 31 26 28
15 17 19 22 25 28 31 32 37 37 36 35 32 30 27 22 19 19 18 18 18 19 19 19 18 23 26 35 34 30 32 36
11 10 10 13 16 20 25 29 29 28 28 27 28 26 24 21 20 19 18 18 18 19 20 21 22 21 32 33 32 36 42 41
11 13 14 14 15 17 20 22 21 22 24 26 27 26 22 19 18 18 18 17 18 21 22 24 26 24 25 28 30 34 36 40
14 15 15 16 16 17 18 20 21 22 21 22 22 20 19 19 20 19 18 14 16 22 24 27 29 29 30 28 27 36 34 34
16 16 17 18 18 19 19 19 21 21 21 21 18 17 17 16 21 21 19 21 19 20 22 22 28 25 27 29 29 33 30 26
17 19 21 21 21 17 18 17 18 18 20 20 20 21 19 19 20 25 24 24 24 22 22 22 25 28 27 32 25 27 25 26

GFSFLT2_700_spd_075.txt.gz
Wind_Speed
19 19 17 25 11 16 28 40 46 38 38 35 33 32 29 28 28 25 22 21 19 18 15 13 11 10 6 6 7 7 8 8
13 11 7 17 19 19 28 34 50 41 42 41 38 33 32 32 29 26 24 20 18 16 15 12 9 9 7 5 5 6 6 6
11 9 12 19 16 9 6 35 44 56 45 33 35 39 37 32 29 27 23 18 14 13 14 11 7 4 9 8 8 7 6 6
12 14 12 19 17 13 19 36 43 37 35 39 39 38 36 32 28 24 20 17 13 9 9 6 4 1 5 9 8 7 6 5
12 11 11 15 15 14 13 47 37 37 42 40 40 38 35 31 26 23 20 17 12 7 3 1 1 6 7 8 8 7 6 3
12 12 13 12 11 8 23 34 28 41 44 41 41 39 34 29 25 19 17 16 10 3 2 2 4 6 7 7 6 5 4 3
12 13 13 11 8 9 16 20 38 43 49 42 43 42 39 29 22 23 17 11 7 4 5 7 5 6 6 6 4 3 3 4
14 15 15 11 12 11 15 16 26 38 40 47 44 32 31 28 24 19 16 10 7 8 8 5 5 6 6 3 2 3 4 4
15 14 13 15 16 15 16 22 21 31 36 39 37 32 28 26 21 17 15 13 13 10 5 3 4 5 5 4 4 4 4 5
18 18 16 20 18 15 19 23 33 37 36 35 35 32 28 24 21 16 16 16 14 11 5 4 4 4 4 5 5 5 6 7
20 21 21 22 21 18 21 26 38 37 36 38 37 33 29 23 21 23 20 18 15 12 9 8 7 6 7 7 8 10 11 11
20 18 22 21 19 26 24 29 36 38 41 38 36 32 26 27 28 26 21 19 17 14 12 12 11 11 12 12 13 14 16 16
25 23 22 22 25 27 23 30 37 41 41 38 34 32 32 32 27 24 24 20 17 16 17 14 14 16 18 17 19 20 21 21
21 23 22 21 23 26 22 26 39 38 33 37 37 36 30 32 27 25 22 20 20 21 19 18 18 19 19 21 25 27 24 27
19 17 16 27 24 22 25 34 37 34 35 38 39 35 34 35 28 24 23 24 23 22 20 20 20 22 22 21 25 28 28 30
16 18 18 20 24 28 29 29 32 28 30 34 37 36 37 32 29 25 24 23 22 22 22 23 23 24 24 22 22 27 25 29
8 11 14 18 21 21 23 26 28 30 34 35 35 33 30 27 25 25 25 23 23 22 24 25 26 25 28 27 28 29 27 28
9 7 7 8 11 15 17 18 23 27 27 28 28 27 28 25 25 24 24 25 23 23 25 26 26 26 25 30 31 27 29 29
10 10 8 8 8 10 11 15 18 22 23 24 26 27 25 22 25 26 25 24 26 26 25 24 24 26 27 30 33 32 31 30
10 11 11 11 10 10 11 13 15 17 19 22 23 24 24 25 24 27 24 28 30 30 31 26 26 25 26 30 28 32 35 36

GFSFLT2_700_spd_081.txt.gz
Wind_Speed
16 20 22 25 25 25 24 25 20 30 37 37 33 26 26 22 19 19 19 19 18 16 14 13 10 8 8 7 6 6 7 7
18 18 19 24 24 25 23 18 17 10 35 39 37 34 29 26 23 20 21 21 19 17 15 13 11 10 8 7 6 6 7 6
19 19 18 9 24 30 23 19 16 18 29 43 34 35 35 28 26 23 23 21 20 17 15 11 9 7 7 6 6 6 7 7
18 20 23 21 19 21 19 18 19 23 37 55 44 40 32 31 29 26 25 23 20 17 13 9 6 6 4 6 7 8 7 8
18 19 22 19 23 19 17 22 20 27 42 46 42 45 39 37 30 28 27 24 20 17 12 9 5 6 5 6 7 7 7 8
16 17 17 15 17 17 17 21 27 32 45 35 41 44 37 32 32 30 26 22 17 13 10 7 6 5 6 5 6 6 7 6
12 14 14 17 21 14 17 18 26 37 51 40 43 39 37 33 32 29 26 21 16 12 10 5 4 4 5 7 5 6 7 8
12 14 16 13 12 12 10 23 35 49 42 44 42 36 32 33 31 30 23 19 15 9 5 7 7 8 8 7 6 8 8 8
9 13 15 13 13 9 15 34 40 36 42 43 34 34 32 32 34 31 30 21 14 13 12 8 7 8 7 6 6 7 7 7
8 11 13 18 12 18 27 31 30 30 47 46 37 36 36 34 33 34 21 19 19 15 11 8 7 6 6 8 7 6 5 6
8 12 16 13 16 23 29 31 24 29 38 52 49 38 33 33 30 17 22 24 21 15 13 10 5 5 6 7 7 6 6 7
14 16 17 19 17 21 28 26 29 28 44 36 38 39 33 23 25 30 30 23 17 14 11 9 10 10 8 8 8 8 9 10
14 16 20 19 22 21 21 30 36 35 44 44 43 37 31 29 35 32 25 17 15 13 10 8 8 12 10 12 13 14 13 14
17 18 17 21 22 18 15 32 38 37 48 49 52 44 38 38 32 17 16 18 17 16 11 11 12 15 15 17 17 18 14 17
12 18 14 21 22 17 21 36 41 40 37 31 45 46 41 36 28 26 22 21 20 16 15 14 15 18 19 22 21 21 18 22
2 13 16 20 24 20 24 24 32 37 33 28 39 45 40 33 28 27 25 23 20 18 18 17 22 21 24 26 25 26 25 28
3 6 8 18 22 21 23 22 26 22 28 28 35 41 35 33 31 29 28 24 21 21 22 23 23 26 28 28 28 30 30 32
6 6 6 9 21 26 27 25 24 31 26 26 30 38 39 36 34 31 28 28 28 26 26 27 26 28 29 31 33 32 30 31
8 8 8 9 10 16 23 24 24 27 27 26 27 35 36 33 33 33 31 31 32 32 31 31 29 33 34 34 35 34 32 29
8 9 10 11 12 14 16 21 26 28 29 27 25 29 31 33 35 35 35 33 36 36 36 36 37 38 38 39 39 40 37 34

GFSFLT2_700_spd_087.txt.gz
Wind_Speed
24 21 22 23 26 31 31 37 37 21 21 19 28 39 38 22 25 22 16 16 16 16 16 15 14 13 12 11 10 8 10 10
24 21 23 23 24 27 25 28 22 22 24 19 31 36 40 23 16 22 18 17 18 18 17 15 14 14 12 12 11 9 9 9
23 21 21 24 26 28 28 25 28 21 13 16 17 31 29 24 22 21 20 18 19 19 17 16 14 13 14 13 13 10 10 9
23 22 24 25 25 25 22 26 29 32 29 23 22 26 28 27 26 25 20 20 21 20 18 17 14 12 13 12 11 12 13 12
22 23 26 27 26 21 19 25 32 29 30 25 18 32 28 32 30 30 25 23 23 23 20 18 15 13 12 12 12 13 11 11
22 23 27 23 25 24 26 15 30 32 30 29 23 32 38 37 35 32 28 25 25 25 22 18 16 15 14 12 13 12 11 10
21 22 24 22 21 25 26 24 22 28 27 23 26 26 43 38 39 34 30 27 27 24 20 18 15 14 13 13 11 10 9 10
21 21 20 18 23 22 24 29 28 28 31 30 24 35 44 41 39 33 34 32 28 24 20 18 16 14 13 12 11 11 10 11
23 20 18 18 22 24 22 27 32 30 30 31 29 37 49 46 42 36 33 32 29 26 22 19 16 15 13 10 9 9 9 9
20 20 18 20 21 20 23 24 27 28 25 27 35 58 56 56 40 37 35 32 28 26 22 19 17 14 12 10 9 8 8 9
19 20 19 20 20 20 21 21 21 16 21 22 38 52 54 34 46 39 31 29 27 24 21 16 13 10 12 11 10 9 9 9
19 20 19 17 18 18 17 15 10 19 30 43 49 47 45 43 33 33 38 39 30 24 17 18 18 16 14 12 10 9 9 9
17 17 15 15 17 17 15 15 19 27 29 30 37 42 38 40 41 43 43 34 27 24 24 21 20 17 13 10 9 9 9 9
16 12 18 16 15 16 16 20 21 20 22 19 26 36 42 50 47 45 30 27 28 26 27 26 20 18 15 8 14 11 9 10
11 9 18 18 19 18 24 23 22 21 15 15 39 42 49 48 43 37 35 34 28 31 30 24 20 18 16 11 11 11 12 12
8 8 16 19 18 23 23 23 23 19 16 12 20 35 43 42 38 36 30 34 33 31 26 21 20 19 17 14 13 13 13 14
7 6 14 16 17 21 23 25 19 19 21 16 21 39 39 39 40 35 34 31 31 33 26 26 23 20 18 17 17 16 17 19
8 5 6 15 18 21 21 27 22 25 27 23 25 39 40 41 36 34 32 31 30 27 27 25 22 22 20 19 19 20 21 24
9 6 3 7 15 18 22 22 26 26 25 23 30 37 43 42 38 38 34 30 30 27 27 24 24 24 21 21 23 23 25 29
12 8 5 3 8 16 17 19 16 20 20 24 28 28 25 35 39 38 36 34 33 29 27 27 27 26 26 27 29 31 33 34